sat.trackr.live / text

‹ back to catalog

STARLINK-33871

NORAD 63994 · 2025-101A

PAYLOAD ACTIVE UNKNOWN

§ Identity

Operator
Country
US
Launch date
2025-05-14
Launch site
AFETR
Launch vehicle
Mass (kg)
RCS (m²)

Purposes: comms

External: N2YO · Heavens-Above · Gunter

§ Orbital elements

Epoch: 2026-05-24T19:31:09.201216Z

Period
94.27 min
Inclination
43.0009°
Eccentricity
0.0001889
Mean motion
15.27586640 rev/d
Perigee alt
481.7 km
Apogee alt
484.3 km
Semi-major
6,861.2 km
B*
7.1874e-4
RAAN
288.3769°
Arg perigee
249.1283°
Mean anomaly
110.9367°
Rev number
5,862

§ Raw data

STARLINK-338711 63994U 25101A   26144.81330094  .00019573  00000+0  71874-3 0  99992 63994  43.0009 288.3769 0001889 249.1283 110.9367 15.27586640 58629

JSON: /api/v1/satellites/63994 · /tle

For live sub-satellite position, see the globe view (requires WebGL).

§ Visibility from observer

Set your observer location to see the next 7 days of passes ≥ 10°. The values pass through the URL so the page stays shareable.

No JS? Fill the form by hand. The geolocation button needs JavaScript.